AEE763 LEBA-LPCS

Flight info

Callsign AEE763
Flight time 1h 25m
Altitude 6500
Route WHISKY HOMACHUELOS RIOVIAR MONASTERIO FREGENAL MOURAO MAXED VALVE PINHEIRO SETUBAL FONTEDATELHA COVADOVAPOR CHARLE
Aircraft C310/L-SDFGR/S

Departure

Time 2026-05-06 18:40
Airport Córdoba Airport (LEBA)

Arrival

Time 2026-05-06 20:05
Airport Cascais Airport (LPCS)
Time Latitude Longitude Altitude Speed Heading
2026-05-06 18:25 37.84591 -4.84412 306 ft 0 kts 333°
2026-05-06 18:36 37.84594 -4.84412 306 ft 4 kts 359°
2026-05-06 18:36 37.84591 -4.84393 306 ft 5 kts 197°
2026-05-06 18:36 37.84554 -4.84429 306 ft 9 kts 212°
2026-05-06 18:36 37.84499 -4.84470 306 ft 9 kts 209°
2026-05-06 18:37 37.84496 -4.84530 307 ft 8 kts 298°
2026-05-06 18:37 37.84506 -4.84553 306 ft 0 kts 298°
2026-05-06 18:38 37.84507 -4.84556 306 ft 2 kts 297°
2026-05-06 18:39 37.84528 -4.84606 306 ft 12 kts 295°
2026-05-06 18:39 37.84501 -4.84676 307 ft 18 kts 207°
2026-05-06 18:39 37.84167 -4.84909 302 ft 87 kts 209°
2026-05-06 18:40 37.82936 -4.85750 1102 ft 99 kts 208°
2026-05-06 18:40 37.82329 -4.86185 1544 ft 102 kts 213°
2026-05-06 18:40 37.81731 -4.86772 1903 ft 117 kts 240°
2026-05-06 18:40 37.81454 -4.87754 2353 ft 120 kts 251°
2026-05-06 18:41 37.81230 -4.88763 2816 ft 117 kts 254°
2026-05-06 18:41 37.81119 -4.89771 3247 ft 120 kts 283°
2026-05-06 18:41 37.81402 -4.90752 3670 ft 119 kts 288°
2026-05-06 18:41 37.81681 -4.91716 4062 ft 118 kts 287°
2026-05-06 18:42 37.81891 -4.92767 4314 ft 131 kts 271°
2026-05-06 18:42 37.81844 -4.93981 4426 ft 150 kts 261°
2026-05-06 18:42 37.81605 -4.95335 4473 ft 166 kts 251°
2026-05-06 18:42 37.81234 -4.96738 4482 ft 177 kts 251°
2026-05-06 18:43 37.80842 -4.98290 4489 ft 185 kts 252°
2026-05-06 18:43 37.80454 -4.99873 4488 ft 191 kts 253°
2026-05-06 18:43 37.80316 -5.01548 4492 ft 194 kts 268°
2026-05-06 18:43 37.80351 -5.03263 4494 ft 196 kts 271°
2026-05-06 18:44 37.80464 -5.04977 4495 ft 196 kts 277°
2026-05-06 18:44 37.80717 -5.06671 4495 ft 197 kts 279°
2026-05-06 18:44 37.80966 -5.08374 4498 ft 197 kts 278°
2026-05-06 18:44 37.81205 -5.10076 4504 ft 197 kts 278°
2026-05-06 18:45 37.81450 -5.11780 4511 ft 197 kts 279°
2026-05-06 18:45 37.81696 -5.13492 4526 ft 199 kts 278°
2026-05-06 18:45 37.81942 -5.15217 4515 ft 200 kts 278°
2026-05-06 18:45 37.82189 -5.16949 4508 ft 200 kts 278°
2026-05-06 18:46 37.82435 -5.18682 4512 ft 200 kts 279°
2026-05-06 18:46 37.82680 -5.20391 4509 ft 200 kts 278°
2026-05-06 18:46 37.82926 -5.22135 4505 ft 199 kts 277°
2026-05-06 18:46 37.83174 -5.23822 4506 ft 197 kts 279°
2026-05-06 18:47 37.83450 -5.25490 4503 ft 191 kts 282°
2026-05-06 18:47 37.83828 -5.27071 4496 ft 185 kts 286°
2026-05-06 18:47 37.84205 -5.28601 4506 ft 180 kts 285°
2026-05-06 18:47 37.84565 -5.30101 4521 ft 178 kts 284°
2026-05-06 18:48 37.84925 -5.31597 4518 ft 177 kts 285°
2026-05-06 18:48 37.85282 -5.33085 4515 ft 176 kts 285°
2026-05-06 18:48 37.85640 -5.34568 4516 ft 176 kts 285°
2026-05-06 18:48 37.85995 -5.36045 4523 ft 175 kts 285°
2026-05-06 18:49 37.86353 -5.37528 4520 ft 176 kts 284°
2026-05-06 18:49 37.86709 -5.39013 4518 ft 176 kts 285°
2026-05-06 18:49 37.87064 -5.40493 4512 ft 175 kts 284°
2026-05-06 18:49 37.87418 -5.41965 4502 ft 174 kts 285°
2026-05-06 18:50 37.87769 -5.43427 4517 ft 173 kts 283°
2026-05-06 18:50 37.88117 -5.44888 4512 ft 172 kts 284°
2026-05-06 18:50 37.88464 -5.46332 4511 ft 171 kts 285°
2026-05-06 18:50 37.88804 -5.47760 4516 ft 169 kts 285°
2026-05-06 18:51 37.89151 -5.49186 4524 ft 169 kts 284°
2026-05-06 18:51 37.89487 -5.50618 4532 ft 170 kts 284°
2026-05-06 18:51 37.89834 -5.52061 4531 ft 172 kts 284°
2026-05-06 18:51 37.90183 -5.53518 4551 ft 174 kts 284°
2026-05-06 18:52 37.90534 -5.54994 4521 ft 175 kts 285°
2026-05-06 18:52 37.90886 -5.56461 4505 ft 171 kts 285°
2026-05-06 18:52 37.91224 -5.57886 4519 ft 167 kts 284°
2026-05-06 18:52 37.91553 -5.59261 4514 ft 163 kts 284°
2026-05-06 18:53 37.91876 -5.60630 4525 ft 161 kts 284°
2026-05-06 18:53 37.92201 -5.61989 4523 ft 161 kts 284°
2026-05-06 18:53 37.92523 -5.63338 4523 ft 159 kts 284°
2026-05-06 18:53 37.92839 -5.64680 4511 ft 159 kts 284°
2026-05-06 18:54 37.93161 -5.66021 4530 ft 160 kts 283°
2026-05-06 18:54 37.93481 -5.67373 4531 ft 161 kts 285°
2026-05-06 18:54 37.93810 -5.68746 4525 ft 163 kts 283°
2026-05-06 18:54 37.94134 -5.70133 4518 ft 166 kts 284°
2026-05-06 18:55 37.94468 -5.71537 4519 ft 168 kts 284°
2026-05-06 18:55 37.94803 -5.72944 4511 ft 168 kts 284°
2026-05-06 18:55 37.95138 -5.74369 4519 ft 169 kts 283°
2026-05-06 18:55 37.95476 -5.75793 4503 ft 168 kts 284°
2026-05-06 18:56 37.95811 -5.77210 4516 ft 168 kts 284°
2026-05-06 18:56 37.96144 -5.78629 4520 ft 168 kts 284°
2026-05-06 18:56 37.96483 -5.80050 4522 ft 169 kts 284°
2026-05-06 18:56 37.96821 -5.81483 4528 ft 170 kts 283°
2026-05-06 18:57 37.97157 -5.82925 4524 ft 171 kts 284°
2026-05-06 18:57 37.97503 -5.84380 4540 ft 174 kts 283°
2026-05-06 18:57 37.97849 -5.85849 4514 ft 173 kts 284°
2026-05-06 18:57 37.98194 -5.87313 4531 ft 173 kts 284°
2026-05-06 18:58 37.98537 -5.88769 4526 ft 171 kts 284°
2026-05-06 18:58 37.98875 -5.90204 4521 ft 168 kts 284°
2026-05-06 18:58 37.99204 -5.91617 4517 ft 166 kts 283°
2026-05-06 18:58 37.99533 -5.93006 4515 ft 164 kts 283°
2026-05-06 18:59 37.99845 -5.94382 4519 ft 162 kts 283°
2026-05-06 18:59 38.00182 -5.95736 4509 ft 160 kts 286°
2026-05-06 18:59 38.00545 -5.97065 4517 ft 158 kts 286°
2026-05-06 18:59 38.00895 -5.98383 4518 ft 157 kts 285°
2026-05-06 19:00 38.01239 -5.99695 4518 ft 156 kts 287°
2026-05-06 19:00 38.01585 -6.00999 4517 ft 156 kts 286°
2026-05-06 19:00 38.01929 -6.02301 4525 ft 155 kts 286°
2026-05-06 19:00 38.02267 -6.03580 4511 ft 155 kts 285°
2026-05-06 19:01 38.02608 -6.04873 4519 ft 154 kts 286°
2026-05-06 19:01 38.02948 -6.06163 4515 ft 154 kts 285°
2026-05-06 19:01 38.03285 -6.07444 4508 ft 152 kts 287°
2026-05-06 19:01 38.03621 -6.08710 4517 ft 151 kts 286°
2026-05-06 19:02 38.03955 -6.09979 4525 ft 152 kts 287°
2026-05-06 19:02 38.04287 -6.11252 4519 ft 152 kts 287°
2026-05-06 19:02 38.04623 -6.12521 4515 ft 152 kts 287°
2026-05-06 19:02 38.04957 -6.13785 4524 ft 151 kts 287°
2026-05-06 19:03 38.05287 -6.15045 4515 ft 150 kts 287°
2026-05-06 19:03 38.05617 -6.16300 4520 ft 150 kts 288°
2026-05-06 19:03 38.05945 -6.17554 4527 ft 150 kts 288°
2026-05-06 19:03 38.06273 -6.18804 4518 ft 149 kts 288°
2026-05-06 19:04 38.06602 -6.20054 4530 ft 149 kts 288°
2026-05-06 19:04 38.06928 -6.21300 4517 ft 148 kts 288°
2026-05-06 19:04 38.07241 -6.22497 4528 ft 148 kts 288°
2026-05-06 19:04 38.07566 -6.23738 4528 ft 149 kts 289°
2026-05-06 19:05 38.07895 -6.24992 4540 ft 151 kts 289°
2026-05-06 19:05 38.08234 -6.26258 4535 ft 153 kts 290°
2026-05-06 19:05 38.08541 -6.27554 4531 ft 154 kts 286°
2026-05-06 19:05 38.08820 -6.28872 4527 ft 155 kts 285°
2026-05-06 19:06 38.09104 -6.30191 4522 ft 155 kts 287°
2026-05-06 19:06 38.09395 -6.31510 4526 ft 155 kts 287°
2026-05-06 19:06 38.09670 -6.32751 4523 ft 155 kts 287°
2026-05-06 19:06 38.09962 -6.34106 4521 ft 156 kts 286°
2026-05-06 19:07 38.10251 -6.35426 4519 ft 155 kts 287°
2026-05-06 19:07 38.10440 -6.36295 4512 ft 153 kts 287°
2026-05-06 19:07 38.10810 -6.37987 4515 ft 153 kts 287°
2026-05-06 19:07 38.11092 -6.39283 4525 ft 153 kts 287°
2026-05-06 19:08 38.11377 -6.40592 4531 ft 154 kts 287°
2026-05-06 19:08 38.11666 -6.41908 4526 ft 155 kts 287°
2026-05-06 19:08 38.11953 -6.43236 4529 ft 156 kts 287°
2026-05-06 19:08 38.12233 -6.44522 4528 ft 157 kts 287°
2026-05-06 19:09 38.12523 -6.45848 4525 ft 158 kts 287°
2026-05-06 19:09 38.12818 -6.47216 4525 ft 159 kts 287°
2026-05-06 19:09 38.13109 -6.48555 4523 ft 160 kts 288°
2026-05-06 19:09 38.13405 -6.49916 4523 ft 160 kts 287°
2026-05-06 19:10 38.13700 -6.51277 4520 ft 160 kts 287°
2026-05-06 19:10 38.13999 -6.52654 4518 ft 159 kts 287°
2026-05-06 19:10 38.14289 -6.53992 4519 ft 159 kts 287°
2026-05-06 19:10 38.14582 -6.55349 4524 ft 159 kts 287°
2026-05-06 19:11 38.14875 -6.56705 4524 ft 159 kts 287°
2026-05-06 19:11 38.15169 -6.58059 4531 ft 159 kts 287°
2026-05-06 19:11 38.15463 -6.59416 4526 ft 160 kts 287°
2026-05-06 19:11 38.15757 -6.60780 4529 ft 160 kts 287°
2026-05-06 19:12 38.16051 -6.62149 4526 ft 161 kts 287°
2026-05-06 19:12 38.16348 -6.63520 4523 ft 161 kts 287°
2026-05-06 19:12 38.16655 -6.64884 4524 ft 161 kts 288°
2026-05-06 19:12 38.17033 -6.66219 4532 ft 161 kts 294°
2026-05-06 19:13 38.17462 -6.67533 4527 ft 161 kts 294°
2026-05-06 19:13 38.17875 -6.68854 4518 ft 160 kts 293°
2026-05-06 19:13 38.18284 -6.70168 4527 ft 160 kts 293°
2026-05-06 19:13 38.18693 -6.71477 4531 ft 160 kts 293°
2026-05-06 19:14 38.19104 -6.72788 4519 ft 159 kts 293°
2026-05-06 19:14 38.19513 -6.74095 4530 ft 159 kts 293°
2026-05-06 19:14 38.19920 -6.75403 4527 ft 160 kts 293°
2026-05-06 19:14 38.20334 -6.76727 4532 ft 162 kts 293°
2026-05-06 19:15 38.20752 -6.78069 4533 ft 164 kts 293°
2026-05-06 19:15 38.21175 -6.79420 4532 ft 165 kts 293°
2026-05-06 19:15 38.21598 -6.80778 4526 ft 165 kts 293°
2026-05-06 19:15 38.22023 -6.82143 4525 ft 167 kts 293°
2026-05-06 19:16 38.22447 -6.83504 4526 ft 168 kts 293°
2026-05-06 19:16 38.22880 -6.84891 4519 ft 169 kts 294°
2026-05-06 19:16 38.23311 -6.86285 4524 ft 169 kts 293°
2026-05-06 19:16 38.23702 -6.87537 4527 ft 170 kts 293°
2026-05-06 19:17 38.24120 -6.88879 4533 ft 170 kts 293°
2026-05-06 19:17 38.24554 -6.90277 4525 ft 170 kts 293°
2026-05-06 19:17 38.24842 -6.91203 4529 ft 170 kts 293°
2026-05-06 19:17 38.25391 -6.92975 4532 ft 170 kts 293°
2026-05-06 19:18 38.25680 -6.93904 4527 ft 170 kts 293°
2026-05-06 19:18 38.26112 -6.95303 4520 ft 169 kts 293°
2026-05-06 19:18 38.26544 -6.96693 4520 ft 168 kts 293°
2026-05-06 19:18 38.26972 -6.98072 4527 ft 168 kts 293°
2026-05-06 19:19 38.27395 -6.99445 4528 ft 167 kts 292°
2026-05-06 19:19 38.27823 -7.00826 4529 ft 168 kts 293°
2026-05-06 19:19 38.28251 -7.02206 4529 ft 168 kts 293°
2026-05-06 19:19 38.28677 -7.03587 4531 ft 168 kts 293°
2026-05-06 19:20 38.29105 -7.04970 4523 ft 168 kts 293°
2026-05-06 19:20 38.29531 -7.06349 4527 ft 167 kts 293°
2026-05-06 19:20 38.29958 -7.07732 4531 ft 168 kts 293°
2026-05-06 19:20 38.30386 -7.09117 4527 ft 168 kts 293°
2026-05-06 19:21 38.30813 -7.10507 4529 ft 168 kts 293°
2026-05-06 19:21 38.31242 -7.11896 4529 ft 168 kts 293°
2026-05-06 19:21 38.31672 -7.13282 4531 ft 168 kts 292°
2026-05-06 19:21 38.32096 -7.14674 4532 ft 169 kts 293°
2026-05-06 19:22 38.32525 -7.16066 4535 ft 169 kts 293°
2026-05-06 19:22 38.32958 -7.17462 4528 ft 169 kts 293°
2026-05-06 19:22 38.33384 -7.18858 4521 ft 169 kts 293°
2026-05-06 19:22 38.33813 -7.20251 4530 ft 169 kts 293°
2026-05-06 19:23 38.34244 -7.21648 4530 ft 169 kts 293°
2026-05-06 19:23 38.34663 -7.23026 4522 ft 169 kts 294°
2026-05-06 19:23 38.35092 -7.24413 4522 ft 168 kts 294°
2026-05-06 19:23 38.35518 -7.25799 4527 ft 168 kts 293°
2026-05-06 19:24 38.35940 -7.27179 4519 ft 166 kts 293°
2026-05-06 19:24 38.36360 -7.28549 4530 ft 165 kts 293°
2026-05-06 19:24 38.36779 -7.29917 4535 ft 166 kts 293°
2026-05-06 19:24 38.37198 -7.31290 4529 ft 166 kts 293°
2026-05-06 19:25 38.37614 -7.32655 4527 ft 166 kts 293°
2026-05-06 19:25 38.38030 -7.34028 4533 ft 166 kts 292°
2026-05-06 19:25 38.38455 -7.35405 4541 ft 167 kts 294°
2026-05-06 19:25 38.38907 -7.36776 4532 ft 168 kts 294°
2026-05-06 19:26 38.39355 -7.38150 4533 ft 168 kts 295°
2026-05-06 19:26 38.39800 -7.39532 4539 ft 169 kts 295°
2026-05-06 19:26 38.40247 -7.40912 4530 ft 168 kts 294°
2026-05-06 19:26 38.40690 -7.42288 4528 ft 167 kts 294°
2026-05-06 19:27 38.41131 -7.43660 4546 ft 168 kts 295°
2026-05-06 19:27 38.41581 -7.45041 4534 ft 169 kts 295°
2026-05-06 19:27 38.42030 -7.46419 4538 ft 169 kts 294°
2026-05-06 19:27 38.42473 -7.47802 4510 ft 170 kts 295°
2026-05-06 19:28 38.42922 -7.49192 4406 ft 169 kts 295°
2026-05-06 19:28 38.43368 -7.50577 4318 ft 169 kts 295°
2026-05-06 19:28 38.43814 -7.51962 4213 ft 169 kts 295°
2026-05-06 19:28 38.44254 -7.53328 4108 ft 168 kts 295°
2026-05-06 19:29 38.44696 -7.54706 4021 ft 168 kts 295°
2026-05-06 19:29 38.45146 -7.56095 3934 ft 170 kts 295°
2026-05-06 19:29 38.45599 -7.57501 3822 ft 172 kts 294°
2026-05-06 19:29 38.46047 -7.58912 3713 ft 172 kts 295°
2026-05-06 19:30 38.46502 -7.60321 3616 ft 172 kts 295°
2026-05-06 19:30 38.46957 -7.61731 3520 ft 172 kts 295°
2026-05-06 19:30 38.47411 -7.63145 3430 ft 172 kts 295°
2026-05-06 19:30 38.47865 -7.64567 3324 ft 173 kts 295°
2026-05-06 19:31 38.48317 -7.65977 3221 ft 171 kts 294°
2026-05-06 19:31 38.48769 -7.67377 3125 ft 170 kts 294°
2026-05-06 19:31 38.49655 -7.70164 2938 ft 169 kts 296°
2026-05-06 19:32 38.50104 -7.71550 2839 ft 169 kts 295°
2026-05-06 19:32 38.50548 -7.72942 2751 ft 170 kts 296°
2026-05-06 19:32 38.50999 -7.74346 2650 ft 171 kts 295°
2026-05-06 19:32 38.51445 -7.75742 2593 ft 168 kts 295°
2026-05-06 19:33 38.51870 -7.77092 2570 ft 164 kts 295°
2026-05-06 19:33 38.52296 -7.78418 2557 ft 159 kts 296°
2026-05-06 19:33 38.52711 -7.79712 2553 ft 156 kts 296°
2026-05-06 19:33 38.53080 -7.81020 2553 ft 155 kts 288°
2026-05-06 19:34 38.53261 -7.82346 2548 ft 153 kts 282°
2026-05-06 19:34 38.53347 -7.83695 2554 ft 153 kts 276°
2026-05-06 19:34 38.53336 -7.85061 2570 ft 154 kts 275°
2026-05-06 19:34 38.53335 -7.86440 2576 ft 156 kts 276°
2026-05-06 19:35 38.53334 -7.87833 2575 ft 157 kts 276°
2026-05-06 19:35 38.53339 -7.89217 2561 ft 156 kts 276°
2026-05-06 19:35 38.53336 -7.90596 2568 ft 155 kts 276°
2026-05-06 19:35 38.53338 -7.91974 2570 ft 156 kts 276°
2026-05-06 19:36 38.53337 -7.93360 2568 ft 156 kts 276°
2026-05-06 19:36 38.53338 -7.94752 2564 ft 157 kts 276°
2026-05-06 19:36 38.53336 -7.96145 2580 ft 157 kts 276°
2026-05-06 19:36 38.53338 -7.97535 2589 ft 158 kts 276°
2026-05-06 19:37 38.53336 -7.98950 2582 ft 160 kts 276°
2026-05-06 19:37 38.53336 -8.00372 2571 ft 160 kts 276°
2026-05-06 19:37 38.53341 -8.01790 2567 ft 160 kts 274°
2026-05-06 19:37 38.53303 -8.03201 2562 ft 158 kts 273°
2026-05-06 19:38 38.53263 -8.04592 2561 ft 156 kts 275°
2026-05-06 19:38 38.53243 -8.05994 2532 ft 159 kts 275°
2026-05-06 19:38 38.53215 -8.07406 2491 ft 159 kts 275°
2026-05-06 19:38 38.53181 -8.08807 2475 ft 157 kts 274°
2026-05-06 19:39 38.53146 -8.10187 2466 ft 155 kts 273°
2026-05-06 19:39 38.53117 -8.11559 2483 ft 154 kts 275°
2026-05-06 19:39 38.53088 -8.12920 2482 ft 153 kts 275°
2026-05-06 19:39 38.53055 -8.14286 2476 ft 154 kts 275°
2026-05-06 19:40 38.53028 -8.15644 2454 ft 152 kts 273°
2026-05-06 19:40 38.52994 -8.16991 2454 ft 151 kts 274°
2026-05-06 19:40 38.52964 -8.18321 2472 ft 150 kts 274°
2026-05-06 19:40 38.52928 -8.19655 2483 ft 151 kts 274°
2026-05-06 19:41 38.52898 -8.20991 2477 ft 151 kts 275°
2026-05-06 19:41 38.52870 -8.22331 2479 ft 151 kts 275°
2026-05-06 19:41 38.52848 -8.23671 2469 ft 150 kts 274°
2026-05-06 19:41 38.52810 -8.25007 2481 ft 151 kts 274°
2026-05-06 19:42 38.52776 -8.26347 2473 ft 151 kts 274°
2026-05-06 19:42 38.52743 -8.27683 2474 ft 150 kts 275°
2026-05-06 19:42 38.52714 -8.29014 2477 ft 150 kts 274°
2026-05-06 19:42 38.52686 -8.30341 2471 ft 149 kts 274°
2026-05-06 19:43 38.52650 -8.31658 2477 ft 148 kts 275°
2026-05-06 19:43 38.52617 -8.32967 2480 ft 147 kts 275°
2026-05-06 19:43 38.52590 -8.34269 2471 ft 147 kts 275°
2026-05-06 19:43 38.52557 -8.35551 2463 ft 146 kts 275°
2026-05-06 19:44 38.52523 -8.36845 2477 ft 146 kts 275°
2026-05-06 19:44 38.52492 -8.38164 2492 ft 148 kts 276°
2026-05-06 19:44 38.52463 -8.39496 2491 ft 153 kts 275°
2026-05-06 19:44 38.52430 -8.40858 2477 ft 157 kts 275°
2026-05-06 19:45 38.52393 -8.42260 2469 ft 158 kts 274°
2026-05-06 19:45 38.52355 -8.43664 2469 ft 158 kts 275°
2026-05-06 19:45 38.52320 -8.45067 2483 ft 159 kts 275°
2026-05-06 19:45 38.52286 -8.46482 2492 ft 160 kts 274°
2026-05-06 19:46 38.52250 -8.47906 2492 ft 161 kts 274°
2026-05-06 19:46 38.52213 -8.49346 2496 ft 163 kts 274°
2026-05-06 19:46 38.52174 -8.50799 2486 ft 164 kts 274°
2026-05-06 19:46 38.52135 -8.52254 2496 ft 164 kts 274°
2026-05-06 19:47 38.52102 -8.53711 2494 ft 164 kts 274°
2026-05-06 19:47 38.52062 -8.55168 2481 ft 164 kts 274°
2026-05-06 19:47 38.52021 -8.56615 2477 ft 162 kts 274°
2026-05-06 19:47 38.51986 -8.58056 2487 ft 162 kts 274°
2026-05-06 19:48 38.51951 -8.59498 2493 ft 163 kts 274°
2026-05-06 19:48 38.51911 -8.60947 2501 ft 163 kts 274°
2026-05-06 19:48 38.51871 -8.62402 2502 ft 164 kts 275°
2026-05-06 19:48 38.51834 -8.63862 2491 ft 164 kts 274°
2026-05-06 19:49 38.51794 -8.65328 2489 ft 166 kts 274°
2026-05-06 19:49 38.51752 -8.66809 2488 ft 167 kts 274°
2026-05-06 19:49 38.51714 -8.68303 2506 ft 170 kts 274°
2026-05-06 19:49 38.51660 -8.69818 2493 ft 171 kts 274°
2026-05-06 19:50 38.51659 -8.71336 2492 ft 171 kts 276°
2026-05-06 19:50 38.51669 -8.72844 2493 ft 169 kts 276°
2026-05-06 19:50 38.51667 -8.74343 2499 ft 168 kts 276°
2026-05-06 19:50 38.51669 -8.75839 2498 ft 169 kts 276°
2026-05-06 19:51 38.51670 -8.77344 2501 ft 170 kts 275°
2026-05-06 19:51 38.51668 -8.78861 2511 ft 172 kts 276°
2026-05-06 19:51 38.51669 -8.80391 2515 ft 173 kts 276°
2026-05-06 19:51 38.51671 -8.81927 2504 ft 173 kts 276°
2026-05-06 19:52 38.51674 -8.83457 2499 ft 173 kts 275°
2026-05-06 19:52 38.51667 -8.84966 2498 ft 172 kts 275°
2026-05-06 19:52 38.51667 -8.86494 2502 ft 172 kts 276°
2026-05-06 19:52 38.51666 -8.88048 2498 ft 172 kts 276°
2026-05-06 19:53 38.51719 -8.89545 2501 ft 171 kts 279°
2026-05-06 19:53 38.51838 -8.91045 2496 ft 169 kts 284°
2026-05-06 19:53 38.52078 -8.92503 2501 ft 167 kts 288°
2026-05-06 19:53 38.52335 -8.93957 2504 ft 168 kts 288°
2026-05-06 19:54 38.52579 -8.95425 2493 ft 169 kts 288°
2026-05-06 19:54 38.52820 -8.96887 2503 ft 168 kts 288°
2026-05-06 19:54 38.53066 -8.98339 2495 ft 167 kts 288°
2026-05-06 19:54 38.53307 -8.99790 2510 ft 167 kts 288°
2026-05-06 19:55 38.53551 -9.01246 2511 ft 168 kts 288°
2026-05-06 19:55 38.53794 -9.02702 2502 ft 167 kts 288°
2026-05-06 19:55 38.54034 -9.04142 2502 ft 165 kts 288°
2026-05-06 19:55 38.54271 -9.05569 2497 ft 163 kts 288°
2026-05-06 19:56 38.54512 -9.07005 2402 ft 167 kts 288°
2026-05-06 19:56 38.54754 -9.08465 2301 ft 169 kts 288°
2026-05-06 19:56 38.55001 -9.09935 2193 ft 168 kts 287°
2026-05-06 19:56 38.55239 -9.11376 2120 ft 163 kts 287°
2026-05-06 19:57 38.55467 -9.12775 2067 ft 158 kts 288°
2026-05-06 19:57 38.55691 -9.14119 2012 ft 150 kts 288°
2026-05-06 19:57 38.55900 -9.15374 1991 ft 143 kts 288°
2026-05-06 19:57 38.56097 -9.16587 1989 ft 137 kts 289°
2026-05-06 19:58 38.56292 -9.17760 2008 ft 134 kts 290°
2026-05-06 19:58 38.56492 -9.18910 2025 ft 133 kts 289°
2026-05-06 19:58 38.56923 -9.19880 2011 ft 125 kts 327°
2026-05-06 19:58 38.57640 -9.20494 2003 ft 124 kts 323°
2026-05-06 19:59 38.57998 -9.21522 2001 ft 132 kts 289°
2026-05-06 19:59 38.58194 -9.22674 2005 ft 133 kts 290°
2026-05-06 19:59 38.58424 -9.23834 2013 ft 136 kts 291°
2026-05-06 19:59 38.58674 -9.25012 2007 ft 138 kts 291°
2026-05-06 20:00 38.58943 -9.26187 1994 ft 137 kts 294°
2026-05-06 20:00 38.59295 -9.27301 1991 ft 134 kts 303°
2026-05-06 20:00 38.59782 -9.28298 1991 ft 130 kts 313°
2026-05-06 20:00 38.60425 -9.29091 1996 ft 128 kts 323°
2026-05-06 20:01 38.61113 -9.29800 2004 ft 125 kts 325°
2026-05-06 20:01 38.61808 -9.30443 1974 ft 123 kts 328°
2026-05-06 20:01 38.62549 -9.31017 1866 ft 126 kts 332°
2026-05-06 20:01 38.63329 -9.31568 1748 ft 130 kts 333°
2026-05-06 20:02 38.64165 -9.32067 1630 ft 135 kts 339°
2026-05-06 20:02 38.65049 -9.32486 1543 ft 135 kts 342°
2026-05-06 20:02 38.65947 -9.32843 1403 ft 137 kts 341°
2026-05-06 20:02 38.66755 -9.33268 1228 ft 117 kts 339°
2026-05-06 20:03 38.67491 -9.33665 1130 ft 115 kts 340°
2026-05-06 20:03 38.68260 -9.33980 1028 ft 116 kts 346°
2026-05-06 20:03 38.69035 -9.34256 960 ft 115 kts 346°
2026-05-06 20:03 38.69801 -9.34530 845 ft 113 kts 343°
2026-05-06 20:04 38.70289 -9.34704 708 ft 105 kts 345°
2026-05-06 20:04 38.70961 -9.34946 547 ft 100 kts 345°
2026-05-06 20:04 38.71636 -9.35193 399 ft 98 kts 343°
2026-05-06 20:04 38.72254 -9.35427 313 ft 81 kts 344°
2026-05-06 20:05 38.72612 -9.35549 316 ft 20 kts 339°
2026-05-06 20:05 38.72716 -9.35592 319 ft 13 kts 341°
2026-05-06 20:05 38.72799 -9.35630 323 ft 13 kts 341°
2026-05-06 20:05 38.72888 -9.35664 329 ft 14 kts 344°
2026-05-06 20:06 38.72987 -9.35699 330 ft 16 kts 344°
2026-05-06 20:06 38.73096 -9.35741 335 ft 15 kts 343°
2026-05-06 20:06 38.73190 -9.35775 338 ft 13 kts 343°
2026-05-06 20:06 38.73264 -9.35818 337 ft 12 kts 283°
2026-05-06 20:07 38.73235 -9.35858 337 ft 6 kts 159°
2026-05-06 20:07 38.73167 -9.35832 337 ft 12 kts 163°
2026-05-06 20:07 38.73160 -9.35829 339 ft 2 kts 163°
2026-05-06 20:07 38.73134 -9.35818 338 ft 11 kts 162°
2026-05-06 20:08 38.73025 -9.35780 334 ft 21 kts 164°
2026-05-06 20:08 38.72868 -9.35719 326 ft 25 kts 164°
2026-05-06 20:08 38.72725 -9.35666 319 ft 20 kts 165°
2026-05-06 20:08 38.72609 -9.35624 317 ft 10 kts 166°
2026-05-06 20:09 38.72565 -9.35653 315 ft 9 kts 197°
2026-05-06 20:09 38.72492 -9.35628 312 ft 13 kts 163°
2026-05-06 20:09 38.72389 -9.35590 307 ft 11 kts 164°
2026-05-06 20:09 38.72336 -9.35582 305 ft 5 kts 216°
2026-05-06 20:10 38.72318 -9.35645 303 ft 10 kts 257°
2026-05-06 20:10 38.72292 -9.35744 302 ft 10 kts 226°
2026-05-06 20:10 38.72249 -9.35746 300 ft 7 kts 180°
2026-05-06 20:10 38.72187 -9.35745 300 ft 11 kts 180°
2026-05-06 20:11 38.72128 -9.35756 298 ft 8 kts 241°
2026-05-06 20:11 38.72144 -9.35788 299 ft 3 kts
2026-05-06 20:11 38.72152 -9.35782 297 ft 1 kts 54°
2026-05-06 20:11 38.72154 -9.35771 298 ft 0 kts 81°